Simultaneous Nadir Overpasses (SNOs) Predictions

Prediction of SNOs between AQUA and NPP Satellite Orbit:

Table of predicted SNOs for the next 14.0 days since TLE Epoch: 7/12/2019
Index Date (AQUA) Time (AQUA) Lat,Lon (AQUA) SZA (AQUA ) Date (NPP) Time (NPP) Lat,Lon (NPP) SZA (NPP ) Distance(km) Time Diff (sec)
1 07/14/2019 21:48:53 -75.13, -90.65 102.63 07/14/2019 21:48:21 -75.13, -90.67 102.59 0.88 32
2 07/14/2019 22:37:57 76.17, 80.02 76.17 07/14/2019 22:38:43 76.16, 79.94 76.16 2.49 46
3 07/17/2019 13:22:09 53.94,-165.29 99.61 07/17/2019 13:20:57 54.18,-166.74 99.93 97.65 72
4 07/17/2019 14:05:09 -75.72, 26.90 102.88 07/17/2019 14:05:04 -75.73, 26.96 102.89 1.85 5
5 07/17/2019 14:54:15 76.65,-162.51 76.03 07/17/2019 14:55:28 76.65,-162.50 75.97 0.27 73
6 07/20/2019 05:32:23 75.02, -26.82 78.42 07/20/2019 05:31:29 75.02, -26.74 78.44 2.39 54
7 07/20/2019 06:21:32 -75.96, 143.49 102.68 07/20/2019 06:21:55 -75.96, 143.47 102.69 0.69 23
8 07/22/2019 21:48:46 75.20, 89.57 78.72 07/22/2019 21:48:20 75.20, 89.56 78.74 0.34 26
9 07/22/2019 22:37:55 -76.14,-100.06 102.38 07/22/2019 22:38:46 -76.13,-100.15 102.40 2.64 51
10 07/25/2019 13:17:17 -70.55, 28.52 95.65 07/25/2019 13:16:03 -70.64, 28.06 95.55 19.63 74
11 07/25/2019 14:05:08 75.49,-153.77 78.94 07/25/2019 14:05:10 75.48,-153.85 78.96 2.52 2




NCC Satellite Simultaneous Nadir Overpasses (SNOs) Prediction Service
